Ely, MN

2:46 AM CDT on August 21, 2017 (GMT -0500)
Ely Municipal

Weather History for KELO - October, 2011

Change the Weather History Date:

Friday, October 7, 2011

  Actual Average Record
Temperature  
Mean Temperature 69 °F -  
Max Temperature 78 °F 55 °F 82 °F (2003)
Min Temperature 60 °F 35 °F 23 °F (2001)
Cooling Degree Days 4    
Growing Degree Days 19 (Base 50)    
Moisture  
Dew Point 50 °F    
Average Humidity 51    
Maximum Humidity 59    
Minimum Humidity 39    
Precipitation  
Precipitation 0.00 in - - ()
Sea Level Pressure  
Sea Level Pressure 29.92 in    
Wind  
Wind Speed 13 mph (SSE)    
Max Wind Speed 24 mph    
Max Gust Speed 36 mph    
Visibility 10 miles    
Events      
Averages and records for this station are not official NWS values.
T = Trace of Precipitation, MM = Missing Value Source: NWS Daily Summary

Daily Weather History Graph

Daily Weather History Graph

Search for Another Location

Airport or City:

Trip Planner

Search our weather history database for the weather conditions in past years. The results will help you decide how hot, cold, wet, or windy it might be!

Date:

Astronomy

Oct. 07, 2011 Rise Set
Actual Time 7:14 AM CDT 6:35 PM CDT
Civil Twilight 6:43 AM CDT 7:05 PM CDT
Nautical Twilight 6:07 AM CDT 7:41 PM CDT
Astronomical Twilight 5:31 AM CDT 8:17 PM CDT
Moon 4:31 PM CDT (10/7) 2:46 AM CDT (10/7)
Length of Visible Light 12h 22m
Length of Day
11h 20m
Waxing Gibbous, 83% of the Moon is Illuminated
Oct 7
Waxing Gibbous
Oct 11
Full
Oct 19
Last Quarter
Oct 26
New
Nov 2
First Quarter

Hourly Weather History & Observations

Time (CDT) Temp. Dew Point Humidity Pressure Visibility Wind Dir Wind Speed Gust Speed Precip Events Conditions
12:12 AM 60.8 °F 46.4 °F 59% 30.04 in 10.0 mi SSE 9.2 mph - N/A   Clear
12:33 AM 60.8 °F 46.4 °F 59% 30.05 in 10.0 mi SSE 10.4 mph - N/A   Clear
12:53 AM 60.8 °F 46.4 °F 59% 30.05 in 10.0 mi SSE 8.1 mph - N/A   Clear
1:12 AM 62.6 °F 46.4 °F 55% 30.04 in 10.0 mi SSE 9.2 mph - N/A   Clear
1:33 AM 62.6 °F 46.4 °F 55% 30.04 in 10.0 mi SSE 10.4 mph - N/A   Clear
1:53 AM 62.6 °F 46.4 °F 55% 30.04 in 10.0 mi SSE 11.5 mph 16.1 mph N/A   Clear
2:12 AM 62.6 °F 46.4 °F 55% 30.03 in 10.0 mi SSE 10.4 mph - N/A   Clear
2:33 AM 62.6 °F 48.2 °F 59% 30.02 in 10.0 mi SSE 13.8 mph 18.4 mph N/A   Clear
2:53 AM 62.6 °F 46.4 °F 55% 30.02 in 10.0 mi South 16.1 mph 21.9 mph N/A   Clear
3:12 AM 62.6 °F 48.2 °F 59% 30.01 in 10.0 mi South 13.8 mph 19.6 mph N/A   Clear
3:33 AM 64.4 °F 48.2 °F 56% 30.01 in 10.0 mi South 13.8 mph 21.9 mph N/A   Clear
3:53 AM 64.4 °F 48.2 °F 56% 30.02 in 10.0 mi South 11.5 mph 18.4 mph N/A   Clear
4:12 AM 64.4 °F 48.2 °F 56% 30.02 in 10.0 mi South 9.2 mph 17.3 mph N/A   Clear
4:33 AM 64.4 °F 48.2 °F 56% 30.01 in 10.0 mi South 9.2 mph - N/A   Clear
4:53 AM 64.4 °F 48.2 °F 56% 30.01 in 10.0 mi South 9.2 mph 17.3 mph N/A   Clear
5:12 AM 64.4 °F 48.2 °F 56% 30.01 in 10.0 mi SSE 9.2 mph 17.3 mph N/A   Clear
5:33 AM 64.4 °F 48.2 °F 56% 30.00 in 10.0 mi South 10.4 mph - N/A   Clear
5:52 AM 64.4 °F 48.2 °F 56% 30.00 in 10.0 mi South 9.2 mph - N/A   Clear
6:12 AM 64.4 °F 48.2 °F 56% 29.99 in 10.0 mi South 8.1 mph - N/A   Clear
6:33 AM 62.6 °F 48.2 °F 59% 29.99 in 10.0 mi SSE 9.2 mph - N/A   Clear
6:53 AM 62.6 °F 48.2 °F 59% 29.99 in 10.0 mi South 8.1 mph - N/A   Clear
7:12 AM 62.6 °F 48.2 °F 59% 29.98 in 10.0 mi South 10.4 mph 19.6 mph N/A   Clear
7:33 AM 62.6 °F 48.2 °F 59% 29.98 in 10.0 mi South 10.4 mph - N/A   Clear
7:52 AM 62.6 °F 48.2 °F 59% 29.97 in 10.0 mi South 12.7 mph 18.4 mph N/A   Clear
8:12 AM 62.6 °F 48.2 °F 59% 29.97 in 10.0 mi SSE 12.7 mph - N/A   Clear
8:33 AM 62.6 °F 48.2 °F 59% 29.97 in 10.0 mi SSE 10.4 mph 16.1 mph N/A   Clear
8:53 AM 64.4 °F 48.2 °F 56% 29.96 in 10.0 mi South 11.5 mph 20.7 mph N/A   Scattered Clouds
9:12 AM 64.4 °F 48.2 °F 56% 29.96 in 10.0 mi SSE 12.7 mph 18.4 mph N/A   Clear
9:32 AM 64.4 °F 50.0 °F 59% 29.95 in 10.0 mi SSE 15.0 mph 24.2 mph N/A   Clear
9:52 AM 66.2 °F 50.0 °F 56% 29.94 in 10.0 mi SSE 13.8 mph 20.7 mph N/A   Clear
10:13 AM 66.2 °F 50.0 °F 56% 29.94 in 10.0 mi South 16.1 mph 24.2 mph N/A   Clear
10:32 AM 68.0 °F 50.0 °F 52% 29.94 in 10.0 mi South 13.8 mph 19.6 mph N/A   Clear
10:52 AM 69.8 °F 50.0 °F 49% 29.93 in 10.0 mi South 13.8 mph 20.7 mph N/A   Clear
11:13 AM 69.8 °F 48.2 °F 46% 29.91 in 10.0 mi SSE 17.3 mph 21.9 mph N/A   Clear
11:32 AM 71.6 °F 48.2 °F 43% 29.90 in 10.0 mi SSE 16.1 mph 21.9 mph N/A   Clear
11:53 AM 71.6 °F 48.2 °F 43% 29.90 in 10.0 mi South 16.1 mph 23.0 mph N/A   Clear
12:13 PM 71.6 °F 50.0 °F 46% 29.90 in 10.0 mi South 11.5 mph 23.0 mph N/A   Clear
12:32 PM 71.6 °F 48.2 °F 43% 29.89 in 10.0 mi South 18.4 mph 27.6 mph N/A   Scattered Clouds
12:53 PM 71.6 °F 50.0 °F 46% 29.88 in 10.0 mi SSE 13.8 mph 24.2 mph N/A   Scattered Clouds
1:12 PM 73.4 °F 50.0 °F 44% 29.87 in 10.0 mi South 20.7 mph 28.8 mph N/A   Clear
1:32 PM 73.4 °F 50.0 °F 44% 29.85 in 10.0 mi South 19.6 mph 29.9 mph N/A   Clear
1:53 PM 75.2 °F 51.8 °F 44% 29.84 in 10.0 mi SSE 17.3 mph 28.8 mph N/A   Clear
2:13 PM 75.2 °F 51.8 °F 44% 29.84 in 10.0 mi SSE 21.9 mph 27.6 mph N/A   Clear
2:32 PM 77.0 °F 51.8 °F 41% 29.83 in 10.0 mi SSE 21.9 mph 29.9 mph N/A   Clear
2:53 PM 77.0 °F 51.8 °F 41% 29.82 in 10.0 mi South 23.0 mph 28.8 mph N/A   Clear
3:12 PM 77.0 °F 51.8 °F 41% 29.81 in 10.0 mi South 19.6 mph 31.1 mph N/A   Clear
3:32 PM 77.0 °F 51.8 °F 41% 29.81 in 10.0 mi South 17.3 mph 29.9 mph N/A   Clear
3:53 PM 77.0 °F 51.8 °F 41% 29.80 in 10.0 mi SSE 23.0 mph 29.9 mph N/A   Scattered Clouds
4:13 PM 78.8 °F 51.8 °F 39% 29.79 in 10.0 mi South 24.2 mph 35.7 mph N/A   Clear
4:32 PM 78.8 °F 53.6 °F 42% 29.79 in 10.0 mi South 24.2 mph 32.2 mph N/A   Clear
4:53 PM 77.0 °F 53.6 °F 44% 29.79 in 10.0 mi SSE 18.4 mph 34.5 mph N/A   Scattered Clouds
5:13 PM 75.2 °F 53.6 °F 47% 29.78 in 10.0 mi SSE 20.7 mph 28.8 mph N/A   Unknown
5:32 PM 75.2 °F 53.6 °F 47% 29.78 in 10.0 mi SSE 17.3 mph 25.3 mph N/A   Mostly Cloudy
5:52 PM 75.2 °F 53.6 °F 47% 29.77 in 10.0 mi SSE 16.1 mph 25.3 mph N/A   Overcast
6:13 PM 75.2 °F 53.6 °F 47% 29.77 in 10.0 mi South 17.3 mph 34.5 mph N/A   Overcast
6:33 PM 75.2 °F 53.6 °F 47% 29.76 in 10.0 mi SSE 20.7 mph 28.8 mph N/A   Overcast
6:52 PM 75.2 °F 53.6 °F 47% 29.76 in 10.0 mi South 21.9 mph 28.8 mph N/A   Overcast
7:13 PM 75.2 °F 53.6 °F 47% 29.78 in 10.0 mi South 17.3 mph 27.6 mph N/A   Overcast
7:33 PM 73.4 °F 55.4 °F 53% 29.78 in 10.0 mi South 15.0 mph 25.3 mph N/A Rain Light Rain
7:53 PM 71.6 °F 55.4 °F 57% 29.78 in 10.0 mi South 15.0 mph 23.0 mph N/A Rain Light Rain
8:12 PM 71.6 °F 55.4 °F 57% 29.77 in 10.0 mi SSE 13.8 mph 18.4 mph N/A   Overcast
8:33 PM 73.4 °F 53.6 °F 50% 29.76 in 10.0 mi SSE 16.1 mph 24.2 mph N/A   Overcast
8:53 PM 73.4 °F 53.6 °F 50% 29.77 in 10.0 mi South 18.4 mph 27.6 mph N/A   Overcast
9:12 PM 73.4 °F 53.6 °F 50% 29.76 in 10.0 mi SSE 17.3 mph 27.6 mph N/A   Mostly Cloudy
9:33 PM 73.4 °F 53.6 °F 50% 29.75 in 10.0 mi SSE 18.4 mph 25.3 mph N/A   Scattered Clouds
9:52 PM 73.4 °F 53.6 °F 50% 29.76 in 10.0 mi South 13.8 mph 26.5 mph N/A   Scattered Clouds
10:12 PM 73.4 °F 53.6 °F 50% 29.76 in 10.0 mi South 12.7 mph 19.6 mph N/A   Overcast
10:33 PM 73.4 °F 53.6 °F 50% 29.76 in 10.0 mi South 16.1 mph 20.7 mph N/A   Overcast
10:53 PM 73.4 °F 53.6 °F 50% 29.76 in 10.0 mi South 13.8 mph 19.6 mph N/A   Overcast
11:12 PM 73.4 °F 53.6 °F 50% 29.76 in 10.0 mi South 15.0 mph 24.2 mph N/A   Overcast
11:33 PM 73.4 °F 53.6 °F 50% 29.76 in 10.0 mi South 16.1 mph 23.0 mph N/A   Overcast
11:52 PM 73.4 °F 53.6 °F 50% 29.76 in 10.0 mi South 16.1 mph 25.3 mph N/A   Overcast